SCP
1 1 1 1 1 1 1 1 0 0 0 0 0 0 0 0 0 0 0 0 0 0 0 0 0 0 0 0 0 0 0 0 0 0 0 0 1 1 1 1 0 0 0
1 1 1 1 1 1 1 1 0 0 0 0 0 0 0 0 0 0 0 0 0 0 0 0 0 0 0 0 0 0 0 0 0 0 0 0 0 1 1 1 1 0 0
1 1 1 1 1 1 1 1 1 0 0 0 0 0 0 0 0 0 0 0 0 0 0 0 0 0 0 0 0 0 0 0 0 0 0 0 0 0 1 1 1 1 1
1 1 1 1 1 1 1 1 1 0 0 0 0 0 0 0 0 0 0 0 0 0 0 0 0 0 0 0 0 0 0 0 0 0 0 0 0 0 1 1 1 1 1
1 1 1 1 1 1 1 1 1 1 0 0 0 0 0 0 0 0 0 0 0 0 0 0 0 0 0 0 0 0 0 0 0 0 0 0 0 0 0 0 1 1 1
0 0 0 0 1 1 1 1 1 0 0 0 0 0 0 0 0 0 0 0 0 0 0 0 0 0 0 0 0 0 0 0 0 0 0 0 0 0 0 0 0 0 0
0 0 0 0 1 1 1 1 1 0 0 0 0 0 0 0 0 0 0 0 0 0 0 0 0 0 0 0 0 0 0 0 0 0 0 0 0 0 0 0 0 0 0
0 0 0 0 1 1 1 1 1 0 0 0 0 0 0 0 0 0 0 0 0 0 0 0 0 0 0 0 0 0 0 0 0 0 0 0 0 0 0 0 0 0 0
0 0 0 1 1 2 1 1 0 0 0 0 0 0 0 0 0 0 0 0 0 0 0 0 0 0 0 0 0 0 0 0 0 0 0 0 0 0 0 0 0 0 0
0 0 0 1 1 2 1 1 0 0 0 0 0 0 0 0 0 0 0 0 0 0 0 0 0 0 0 0 0 0 0 0 0 0 0 0 0 0 0 0 0 0 0
0 0 0 1 1 1 1 1 0 0 0 0 0 0 0 0 0 0 0 0 0 0 0 0 0 0 0 0 0 0 0 0 0 0 0 0 0 0 0 0 0 0 0
0 0 0 1 1 1 1 0 0 0 0 0 0 0 0 0 0 0 0 0 0 0 0 0 0 0 0 0 0 0 0 0 0 0 0 0 0 0 0 0 0 0 0
0 0 0 0 0 0 0 0 0 0 0 0 0 0 0 0 0 0 0 0 0 0 0 0 0 0 0 0 0 0 0 0 0 0 0 0 0 0 0 0 0 0 0
0 0 0 0 0 0 0 0 0 0 0 0 0 0 0 0 0 0 0 0 0 0 0 0 0 0 0 0 0 0 0 0 0 0 0 0 0 0 0 0 0 0 0
0 0 0 0 0 0 0 0 0 0 0 0 0 0 0 0 0 0 0 0 0 0 0 0 0 0 0 0 0 0 0 0 0 0 0 0 0 0 0 0 0 0 0
0 0 0 0 0 0 0 0 0 0 0 0 0 0 0 0 0 0 0 0 0 0 0 0 0 0 0 0 0 0 0 0 0 0 0 0 0 0 0 0 0 0 0
0 0 0 0 0 0 0 0 0 0 0 0 0 0 0 0 0 0 0 0 0 0 0 0 0 0 0 0 0 0 0 0 0 0 0 0 0 0 0 0 0 0 0
0 0 0 0 0 0 0 0 0 0 0 0 0 0 0 0 0 0 0 0 0 0 0 0 0 0 0 0 0 0 0 0 0 0 0 0 0 0 0 0 0 0 0
0 0 0 0 0 0 0 0 0 0 0 0 0 0 0 0 0 0 0 0 0 0 0 0 0 0 0 0 0 0 0 0 0 0 0 0 0 0 0 0 0 0 0
0 0 0 0 0 0 0 0 0 0 0 0 0 0 0 0 0 0 0 0 0 0 0 0 0 0 0 0 0 0 0 0 0 0 0 0 0 0 0 0 0 0 0
0 0 0 0 0 0 0 0 0 0 0 0 0 0 0 0 0 0 0 0 0 0 0 0 0 0 0 0 0 0 0 0 0 0 0 0 0 0 0 0 0 0 0
0 0 0 0 0 0 0 0 0 0 0 0 0 0 0 0 0 0 0 0 0 0 0 0 0 0 0 0 0 0 0 0 0 0 0 0 0 0 0 0 0 0 0
0 0 0 0 0 0 0 0 0 0 0 0 0 0 0 0 0 0 0 0 0 0 0 0 0 0 0 0 0 0 0 0 0 0 0 0 0 0 0 0 0 0 0
0 0 0 0 0 0 0 0 0 0 0 0 0 0 0 0 0 0 0 0 0 0 0 0 0 0 0 0 0 0 0 0 0 0 0 0 0 0 0 0 0 0 0
0 0 0 0 0 0 0 0 0 0 0 0 0 0 0 0 0 0 0 0 0 0 0 0 0 0 0 0 0 0 0 0 0 0 0 0 0 0 0 0 0 0 0
0 0 0 0 0 0 0 0 0 0 0 0 0 0 0 0 0 0 0 0 0 0 0 0 0 0 0 0 0 0 0 0 0 0 0 0 0 0 0 0 0 0 0
Wind_Speed
2 3 3 3 3 3 3 4 4 4 5 5 6 5 5 5 5 4 4 4 5 4 4 4 4 3 2 2 2 2 3 3 4 4 2 2 3 3 3 3 4 4 5
2 2 3 3 3 3 4 4 4 4 4 5 5 5 5 5 5 6 6 5 6 6 5 5 5 4 4 3 3 3 3 3 3 4 3 2 3 4 4 4 4 4 4
2 2 2 2 3 3 3 4 3 4 4 4 5 6 6 6 6 6 6 6 6 6 6 6 6 5 5 3 4 4 3 3 3 3 4 2 2 3 3 4 4 4 5
2 2 3 3 3 3 3 3 3 3 4 4 4 5 5 6 6 6 6 6 6 6 6 6 6 6 6 5 5 5 3 3 3 3 3 3 2 2 3 4 4 4 4
3 2 3 2 2 2 2 2 2 3 3 4 4 4 5 5 6 7 7 7 7 6 6 6 6 7 8 7 5 5 4 4 3 4 4 3 3 3 4 3 4 3 4
3 3 3 2 2 2 2 2 2 3 3 3 4 4 5 4 7 10 8 7 7 7 7 6 6 7 8 10 10 9 8 6 5 5 4 5 5 4 3 3 3 3 4
3 3 3 3 2 2 2 2 2 3 3 3 4 4 5 6 9 9 9 6 6 6 7 6 5 5 7 6 7 9 9 10 10 7 6 6 5 4 4 5 5 5 5
3 3 3 2 3 3 2 3 3 3 3 3 4 4 4 5 8 9 9 6 5 6 6 6 6 6 6 6 5 6 6 7 8 7 7 6 5 4 5 6 5 4 3
3 3 3 3 3 3 3 3 3 2 2 3 3 3 3 4 7 8 7 4 4 5 5 6 6 6 9 9 6 6 6 6 7 9 9 8 8 8 5 3 3 3 4
4 4 3 3 3 3 3 3 2 2 2 2 2 2 3 4 7 8 7 3 4 4 4 5 8 8 9 10 7 7 7 6 5 5 6 7 7 7 8 5 4 4 3
4 4 3 3 2 2 2 2 2 2 2 2 2 3 3 4 5 6 6 3 4 4 4 4 4 9 10 10 9 7 8 6 4 5 4 4 4 4 4 4 4 5 5
4 4 3 3 2 2 2 2 2 2 2 2 2 2 2 3 4 5 6 6 5 4 4 4 4 8 9 10 8 8 8 6 3 4 4 4 4 4 4 4 5 5 5
4 4 3 3 3 3 2 2 2 1 2 2 2 2 2 2 3 5 6 6 6 4 3 6 6 8 7 6 8 8 6 4 3 4 4 4 4 3 3 2 3 3 3
4 4 4 3 3 3 2 2 1 2 2 2 2 2 2 2 2 2 3 4 5 4 3 5 7 7 6 6 5 4 3 3 3 4 3 3 2 2 3 3 3 3 3
4 4 4 4 3 3 3 2 2 2 2 3 2 2 2 3 4 7 5 4 3 3 3 2 2 2 3 2 2 2 2 2 3 3 3 2 3 3 3 2 3 3 4
4 4 3 3 3 3 3 3 4 4 5 6 5 4 3 5 7 7 8 8 7 5 3 2 2 2 3 3 3 3 3 3 3 3 3 3 3 3 3 2 3 4 4
3 3 3 3 3 3 3 3 3 4 6 6 6 6 5 6 6 7 7 5 5 4 1 1 2 2 2 2 2 2 3 3 3 3 3 3 3 3 3 3 4 4 4
3 4 4 3 3 3 3 3 2 3 3 3 5 7 8 7 7 7 6 4 2 2 1 1 2 2 2 2 2 2 2 2 3 3 3 3 3 3 4 4 4 4 4
3 2 3 3 3 2 3 3 2 3 3 3 3 4 7 8 7 7 6 3 2 2 2 1 1 2 2 2 2 2 2 3 3 3 3 4 4 4 4 4 4 5 5
2 4 4 2 2 2 2 2 2 2 3 3 3 3 4 4 3 3 3 2 2 2 2 2 2 2 2 2 2 2 2 3 3 3 3 3 3 3 4 4 4 4 4
2 3 5 3 2 2 2 2 2 2 2 3 3 4 5 3 2 3 2 2 2 2 2 2 2 2 2 2 2 2 3 3 3 3 3 3 3 3 3 3 4 4 4
2 2 2 2 2 2 2 2 2 2 2 3 3 4 6 3 2 2 3 3 3 2 2 2 2 2 2 2 2 2 3 3 3 3 3 3 3 3 3 3 3 3 4
2 2 2 2 2 4 4 2 2 2 2 3 3 3 3 2 3 3 3 3 3 2 2 2 2 2 2 2 2 3 3 4 3 3 3 3 3 3 3 3 4 4 4
2 2 2 2 2 2 2 3 3 3 3 3 3 2 2 2 3 3 3 3 3 3 2 2 2 3 4 3 3 3 3 4 4 4 5 4 4 4 3 3 3 4 4
1 2 2 2 2 3 3 3 3 3 3 3 3 3 3 3 3 3 3 3 3 3 4 3 3 3 4 5 5 4 7 9 8 5 4 4 4 4 4 4 3 3 4
2 2 2 2 2 3 3 3 3 3 3 3 3 3 3 3 3 3 3 3 3 3 4 3 4 4 5 4 6 7 9 9 9 8 4 3 4 4 4 3 3 3 3
Wind_Direction
256 246 234 218 213 221 212 212 208 204 199 197 197 197 198 200 200 203 212 208 210 217 216 213 222 222 217 217 216 220 224 222 242 261 255 226 211 223 230 218 216 219 228
266 257 248 230 208 220 222 215 208 205 204 200 198 200 205 205 204 208 214 213 211 214 217 217 224 221 222 218 217 226 230 226 230 252 260 238 227 221 218 222 228 228 225
286 271 258 244 215 219 229 217 209 208 208 207 204 206 209 209 211 214 215 217 218 217 215 215 219 217 223 223 222 226 232 240 235 240 251 250 243 232 223 232 235 233 236
298 275 263 254 231 220 231 221 211 210 208 210 212 215 215 215 216 218 218 220 224 224 222 218 217 216 221 220 223 225 228 236 239 242 247 247 244 233 216 220 237 231 239
303 283 275 272 261 233 232 229 217 216 221 216 216 221 224 221 219 217 218 220 222 224 224 222 221 225 227 226 227 221 218 224 234 239 245 244 238 220 223 220 238 242 245
305 296 292 287 282 258 241 234 228 225 225 221 221 222 227 235 241 236 229 221 222 222 222 221 223 224 231 237 239 236 229 225 227 232 242 242 239 232 228 229 238 249 252
304 304 302 296 285 275 264 244 235 234 229 227 230 227 231 239 244 242 241 231 224 226 221 215 222 226 227 227 240 244 240 240 234 231 239 244 244 232 222 228 230 236 251
303 304 305 298 288 279 261 245 240 240 237 234 234 234 236 247 251 247 246 236 232 229 224 217 216 217 222 223 226 236 238 240 240 236 238 243 246 243 229 231 236 249 269
307 305 307 304 292 284 274 257 246 243 250 253 250 239 242 256 258 254 247 229 234 233 229 222 219 217 228 228 222 230 240 245 247 246 249 252 255 257 251 238 229 232 256
309 304 306 302 290 283 278 275 270 251 255 263 275 267 256 258 265 261 252 229 232 237 232 227 230 230 231 227 220 222 234 237 237 250 251 253 251 249 246 232 224 230 244
313 309 310 309 296 284 284 286 281 264 254 255 268 276 271 272 274 270 261 240 230 233 236 231 231 239 238 236 235 228 236 237 234 238 244 246 245 239 233 231 227 226 230
319 318 316 318 313 312 298 293 285 260 247 252 258 274 275 279 284 281 277 271 263 240 241 236 233 238 241 244 244 242 242 240 228 230 237 240 237 233 232 228 230 235 237
333 328 324 329 324 317 298 290 289 274 256 264 267 277 292 294 293 297 290 289 285 268 255 255 252 247 245 242 247 250 242 229 224 232 237 240 240 237 236 235 235 241 249
339 334 332 336 335 329 320 312 300 288 271 273 276 280 290 296 297 294 285 285 286 280 273 269 264 254 245 242 242 238 228 224 227 235 241 245 242 231 235 232 233 233 246
342 341 342 341 335 337 341 339 323 303 290 290 272 266 270 274 284 292 293 283 270 265 276 260 242 234 224 221 221 219 214 218 229 227 228 232 240 242 242 232 227 225 233
341 343 340 334 335 337 339 347 349 335 335 328 319 306 298 296 301 299 298 296 293 291 289 269 258 250 241 232 224 222 219 221 223 226 224 224 232 236 241 239 236 228 233
335 336 334 335 337 336 334 333 337 346 349 348 344 334 325 321 319 315 309 303 299 299 277 264 262 260 261 246 230 229 229 226 221 225 231 229 230 232 234 237 236 236 233
335 333 335 331 333 333 335 333 333 333 335 340 344 345 344 342 343 342 344 343 329 324 297 281 279 274 263 261 247 238 242 236 224 223 227 232 231 230 230 232 233 231 233
333 330 330 330 333 335 336 333 332 328 325 327 337 342 346 344 348 352 359 3 343 326 318 314 309 306 292 274 270 257 244 243 240 230 229 230 230 229 233 232 233 244 239
327 330 335 335 337 335 333 329 327 326 328 328 327 330 333 343 350 343 344 341 328 318 316 306 296 290 292 282 270 270 263 251 242 239 241 233 228 230 233 230 228 234 235
322 325 332 333 332 329 327 322 322 326 322 318 315 316 329 336 332 328 326 323 312 306 307 303 295 287 281 287 282 270 267 263 253 247 249 246 238 237 240 233 228 232 236
321 321 323 322 323 323 321 323 324 316 313 313 315 319 328 334 328 325 321 319 317 311 304 294 286 281 273 267 271 272 266 265 263 254 252 253 248 242 241 237 230 229 232
316 316 318 320 321 320 326 325 317 312 309 308 309 315 319 318 316 311 309 310 311 308 305 295 287 287 286 277 263 253 254 255 254 255 252 252 250 247 241 235 233 231 232
305 305 310 316 319 316 311 312 313 309 305 304 304 304 305 305 305 304 304 304 304 301 297 292 285 284 287 287 279 269 261 260 253 243 239 242 246 249 248 239 238 241 237
297 298 300 302 305 305 305 305 305 305 303 301 299 297 297 298 297 298 298 297 296 294 293 290 283 279 281 281 279 274 273 273 269 255 235 234 235 236 238 237 236 240 240
294 296 298 302 302 301 300 300 301 302 300 298 295 291 290 289 288 289 291 291 292 291 292 290 286 284 282 280 277 276 279 279 274 267 246 227 229 234 232 232 228 231 235